Location: Grand Dr�vez
(47.9833°N, 4.3167°W)
Time: 05:50:15
(UTC+00:00)

Daily predictions for brighter satellites

Satellite Brightness Start Highest point End
(mag) Time Altitude Azimuth Time Altitude Azimuth Time Altitude Azimuth
CZ-4C R/B 4.3 03:32:39 22° NNE 03:32:39 22° NNE 03:35:07 10° NE
ATLAS 2AS CENTAUR R/B 4.1 03:31:58 34° N 03:33:02 35° NNE 03:39:43 10° E
SJ 16-02 4.3 03:37:48 12° E 03:37:59 12° E 03:39:49 10° ENE
SL-4 R/B 4.4 03:59:44 27° ENE 03:59:44 27° ENE 04:02:02 10° E
USA 234 3.9 04:00:11 10° ENE 04:05:49 43° N 04:05:49 43° N
IDEFIX/ARIANE 42P 4.4 04:06:29 10° NNE 04:08:18 22° NNE 04:08:18 22° NNE
Cosmos 2082 Rocket 2.4 04:25:34 64° NNE 04:25:34 64° NNE 04:30:22 10° NNE
Cosmos 158 Rocket 4.1 04:34:13 64° E 04:34:13 64° E 04:38:45 10° SSE
Cosmos 1934 Rocket 4.4 04:36:30 47° NNW 04:36:30 47° NNW 04:41:08 10° N
Cosmos 1833 Rocket 3.4 04:41:03 39° N 04:41:03 39° N 04:44:53 10° NNE
Lacrosse 5 2.1 04:42:40 62° NNE 04:42:40 62° NNE 04:47:03 10° NE
COSMOS 2455 3.2 04:40:31 37° NNW 04:42:49 61° NE 04:48:45 10° SE
NOSS 3-4 (A) 4.4 04:41:05 28° NNW 04:44:38 51° NE 04:51:56 10° ESE
NOSS 3-4 (C) 4.4 04:41:11 28° NNW 04:44:44 50° NE 04:52:01 10° ESE
MSX 3.7 04:40:36 10° NNE 04:46:22 78° WNW 04:47:19 63° SW
Cosmos 1447 Rocket 4.4 04:43:02 10° N 04:49:26 84° W 04:55:46 10° S
Cosmos 990 Rocket 4.2 04:46:45 28° S 04:49:26 66° ESE 04:54:38 10° NNE
Cosmos 967 Rocket 4.3 04:48:56 58° SW 04:50:18 81° NW 04:56:46 10° NE
CZ-2C R/B 2.3 04:46:14 10° NNE 04:51:09 79° ESE 04:53:05 37° S
ATLAS CENTAUR R/B 4.2 04:50:11 10° SSE 04:53:49 21° ESE 04:57:23 10° ENE
Cosmos 2360 Rocket 3.8 04:49:37 12° N 04:54:12 31° NE 04:59:13 10° ESE
NOSS 3-3 (A) 4.1 04:51:48 32° SSW 04:54:44 73° SE 05:01:23 10° NE
NOSS 3-3 (C) 4.1 04:51:53 31° SSW 04:54:51 72° SE 05:01:29 10° NE
SL-16 R/B 2.6 04:52:28 26° NNW 04:55:43 61° ENE 05:01:19 10° SE
Meteor 2-20 4.3 04:50:57 10° N 04:57:09 85° W 05:03:18 10° S
ASTEX 1 3.2 04:53:41 10° S 04:58:39 83° W 05:03:40 10° N
ADEOS 4.5 04:54:42 10° N 04:57:51 33° NNW 04:57:51 33° NNW
Cosmos 1980 Rocket 2.9 05:01:50 37° SSW 05:01:50 37° SSW 05:05:41 10° S
Meteor PRIRODA 4.5 04:59:31 10° NNE 05:03:06 49° E 05:06:38 10° S
BREEZE-M DEB (TANK) 4.0 05:05:33 27° SSE 05:05:33 27° SSE 05:08:05 10° SE
Cosmos 2322 Rocket 2.6 05:00:58 21° NNW 05:04:47 62° ENE 05:10:23 10° SE
ALOS 4.3 05:01:05 10° NE 05:05:09 29° E 05:09:12 10° SSE
Cosmos 2151 3.8 05:03:45 10° S 05:07:56 52° E 05:12:08 10° NNE
Cosmos 1766 Rocket 4.4 05:04:45 10° SSE 05:08:55 49° E 05:13:09 10° NNE
Okean 3 Rocket 3.9 05:06:09 10° S 05:10:38 68° E 05:15:07 10° NNE
Lacrosse 5 rocket 2.9 05:10:59 21° N 05:10:59 21° N 05:13:47 10° ENE
Cosmos 1408 4.4 05:09:27 10° SSE 05:12:46 32° E 05:16:05 10° NNE
H-2A R/B 3.3 05:09:22 10° N 05:12:35 40° NNW 05:12:35 40° NNW
Cosmos 1153 Rocket 4.3 05:09:00 10° SSW 05:15:06 71° W 05:21:16 10° N
SJ 16-02 1.1 05:14:55 51° SW 05:15:56 76° WNW 05:20:20 10° NNE
CZ-4B R/B 4.0 05:12:20 10° N 05:16:51 76° WNW 05:21:19 10° SSW
Cosmos 839 Rocket 4.1 05:14:10 36° WSW 05:16:54 59° NW 05:23:03 10° NNE
COSMO-SKYMED 1 2.7 05:14:16 10° SSE 05:18:36 73° ENE 05:22:57 10° N
Shenzhou-11 Module 4.1 05:19:57 18° SSE 05:19:57 18° SSE 05:21:07 10° SE
CZ-4C R/B 3.9 05:17:50 19° NNW 05:19:26 21° N 05:24:31 10° NE
Cosmos 2173 Rocket 4.1 05:16:01 10° S 05:22:16 80° E 05:28:28 10° N
Cosmos 1605 Rocket 4.2 05:21:55 30° WSW 05:24:16 42° WNW 05:30:04 10° N
Cosmos 1898 Rocket 3.4 05:21:35 25° SW 05:24:37 63° WNW 05:29:53 10° NNE
ATLAS 2AS CENTAUR R/B 2.8 05:19:26 21° NW 05:25:01 90° ENE 05:32:07 10° SE
STARLINK-80 3.3 05:32:24 49° WSW 05:33:22 88° NNW 05:37:13 10° ENE
Cosmos 1937 Rocket 3.3 05:28:41 10° SSW 05:33:49 71° WNW 05:38:58 10° NNE
Meteor 1-31 Rocket 3.1 05:31:32 10° N 05:34:49 42° NW 05:34:49 42° NW
FENGYUN 3A 4.4 05:30:48 10° NNE 05:36:09 55° E 05:41:26 10° S
Cosmos 1606 4.3 05:33:27 10° N 05:36:57 34° ENE 05:40:27 10° SE
Cosmos 1892 2.5 05:33:31 10° SSW 05:37:16 64° W 05:41:03 10° N
SL-4 R/B 2.3 05:35:21 36° WNW 05:37:20 89° SW 05:42:10 10° ESE
Cosmos 2333 Rocket 4.0 05:32:58 10° NNW 05:37:51 27° NE 05:42:43 10° ESE
CZ-4B R/B 4.2 05:33:09 10° NNE 05:38:22 48° E 05:43:38 10° S
COBE Rocket 4.1 05:33:59 10° S 05:38:57 49° W 05:43:53 10° NNW
Cosmos 2058 3.6 05:41:50 33° WNW 05:41:50 33° WNW 05:45:12 10° N
BREEZE-M DEB (TANK) 2.9 05:40:40 38° WSW 05:41:20 46° SSW 05:43:54 10° ESE
Cosmos 1484 Rocket 2.7 05:37:22 10° N 05:41:23 77° WNW 05:45:23 10° SSW
SKYMED 3 4.5 05:38:23 10° S 05:42:42 65° WSW 05:47:02 10° NNW
CZ-4B R/B 3.3 05:40:04 10° N 05:42:46 34° NW 05:42:46 34° NW
Cosmos 2228 Rocket 4.3 05:40:26 10° N 05:44:51 44° ENE 05:49:14 10° SSE
Cosmos 2219 Rocket 3.9 05:40:47 10° NNW 05:45:40 28° NE 05:50:31 10° ESE
USA 116 3.2 05:42:38 10° SSE 05:45:52 89° ENE 05:49:27 10° NNW
Okean O Rocket 2.3 05:41:56 10° NNE 05:46:14 56° E 05:50:29 10° S
STARLINK-52 4.0 05:46:37 32° NW 05:47:25 36° N 05:50:43 10° ENE
USA 234 3.9 05:42:26 10° E 05:48:33 44° N 05:53:09 18° NW
Cosmos 2346 Rocket 4.5 05:43:09 10° N 05:49:16 83° E 05:55:19 10° S
STARLINK-60 4.1 05:48:57 29° NNW 05:49:46 33° N 05:52:52 10° ENE
IDEFIX/ARIANE 42P 4.3 05:47:22 10° NNW 05:49:05 15° NW 05:49:05 15° NW
Cosmos 1400 Rocket 4.2 05:47:26 10° N 05:51:20 40° ENE 05:55:09 10° SE
Gbstr 26 Del rocket 2.6 05:51:35 31° W 05:53:14 67° NNW 05:56:58 10° ENE
BREEZE-M DEB (TANK) 3.8 05:53:57 11° SSW 05:53:57 11° SSW 05:54:22 10° SSW
NOAA 6 4.5 05:49:25 10° NNE 05:54:32 64° ESE 05:59:37 10° S
PAYLOAD B 4.3 05:49:51 10° NNE 05:55:24 85° ESE 06:00:54 10° SSW
Cosmos 1825 2.2 05:53:00 10° S 05:56:45 79° E 06:00:33 10° NNE
BREEZE-M DEB (TANK) 4.0 05:50:41 18° WNW 05:59:31 54° SW 06:03:24 10° SE
STARLINK-48 3.4 05:57:18 23° WSW 05:59:37 76° NNW 06:03:32 10° ENE
STARLINK-43 3.7 05:59:05 27° WNW 06:00:46 50° NNW 06:04:24 10° ENE
STARLINK-29 4.1 05:59:42 25° NW 06:01:04 34° N 06:04:19 10° ENE
Cosmos 1437 3.2 05:59:08 10° S 06:02:08 58° E 06:05:09 10° NNE
Abrixas rocket 3.9 05:59:49 10° SSW 06:02:26 27° SSE 06:05:03 10° E
SJ-12 3.9 05:59:26 10° N 06:03:32 61° WNW 06:07:37 10° SSW
STARLINK-35 4.4 06:01:06 10° SW 06:05:08 53° SE 06:09:10 10° ENE
Cosmos 1151 Rocket 3.1 06:01:19 10° NNW 06:05:36 53° W 06:09:50 10° S
Cosmos 1459 Rocket 4.1 05:59:47 10° SSW 06:05:48 52° WNW 06:11:58 10° N
In-Cosmos 22 Rocket 4.5 06:00:46 10° SW 06:05:49 40° WNW 06:11:02 10° N
BREEZE-M DEB 4.5 05:56:46 17° W 06:05:49 67° SSW 06:10:06 10° ESE
STARLINK-51 4.3 06:02:47 10° SW 06:06:50 54° SE 06:10:53 10° ENE
SKYMED 2 4.1 06:02:49 10° SSW 06:06:50 37° W 06:10:53 10° NNW
Cosmos 1328 Rocket 3.7 06:03:17 10° NNW 06:07:27 46° W 06:11:34 10° SSW
STARLINK-30 4.3 06:04:27 10° SW 06:08:29 56° SE 06:12:34 10° ENE
Cosmos 1515 Rocket 3.4 06:04:27 10° NNW 06:08:47 73° W 06:13:05 10° S
Cosmos 2082 Rocket 3.5 06:07:28 18° WNW 06:09:29 21° NW 06:13:49 10° N
CZ-4B DEB 4.1 06:04:33 10° N 06:10:00 67° WNW 06:15:25 10° SSW
STARLINK-33 4.2 06:06:04 10° SW 06:10:08 57° SE 06:14:13 10° ENE
Cosmos 1725 Rocket 4.0 06:05:25 10° S 06:11:40 81° W 06:18:02 10° N
STARLINK-50 4.2 06:07:42 10° SW 06:11:47 59° SE 06:15:52 10° ENE
FALCON 9 DEB 4.1 06:11:39 19° NW 06:13:31 34° N 06:16:42 10° ENE
Cosmos 2016 Rocket 4.0 06:07:54 10° SSW 06:14:06 64° WNW 06:20:25 10° N
Cosmos 1743 Rocket 3.6 06:10:28 10° S 06:14:47 82° E 06:19:08 10° N
STARLINK-56 4.1 06:10:59 10° SW 06:15:04 61° SSE 06:19:10 10° ENE
Starlink (trailer) 4.1 06:12:49 10° SW 06:16:55 63° SSE 06:21:01 10° ENE
Cosmos 372 Rocket 3.9 06:12:27 10° SSW 06:17:36 73° WNW 06:22:45 10° NNE
STARLINK-38 4.0 06:14:19 10° SW 06:18:25 65° SSE 06:22:31 10° ENE
Cosmos 2237 4.2 06:12:42 10° NNW 06:18:26 79° WSW 06:24:08 10° SSE
STARLINK-26 3.8 06:15:07 10° SW 06:19:11 72° SSE 06:23:17 10° ENE
STARLINK-65 4.0 06:16:00 10° SW 06:20:06 66° SSE 06:24:14 10° ENE
COSMOS 2487 2.4 06:17:50 10° SSW 06:21:15 60° WNW 06:24:42 10° NNE
STARLINK-61 3.5 06:19:07 10° WSW 06:23:09 88° NNW 06:27:13 10° ENE
Cosmos 1833 Rocket 4.4 06:22:47 12° NW 06:24:40 14° NNW 06:27:32 10° N
STARLINK-69 3.9 06:20:56 10° SW 06:25:03 72° SSE 06:29:12 10° ENE
Lacrosse 5 2.8 06:21:53 14° WNW 06:25:35 32° NNW 06:30:10 10° NE
STARLINK-66 3.8 06:22:38 10° SW 06:26:46 73° SSE 06:30:54 10° ENE
Cosmos 2298 Rocket 4.1 06:21:40 10° SW 06:26:53 56° WNW 06:32:07 10° NNE
STARLINK-41 3.8 06:24:12 10° SW 06:28:21 75° SSE 06:32:29 10° ENE
COSMOS 2455 3.8 06:23:42 11° NW 06:28:23 28° WSW 06:33:23 10° SSW
CZ-2C R/B 3.8 06:25:46 10° NNW 06:28:44 16° WNW 06:31:39 10° W
COSMOS 2428 3.5 06:24:21 10° NNW 06:29:58 53° ENE 06:35:33 10° SE
STARLINK-64 3.8 06:25:53 10° SW 06:30:01 77° SSE 06:34:10 10° ENE
Tsikada Rocket 4.1 06:23:46 10° NNW 06:30:04 60° W 06:36:15 10° S
STARLINK-70 3.8 06:27:31 10° SW 06:31:40 78° SSE 06:35:49 10° ENE
ATLAS CENTAUR R/B 1.7 06:27:29 10° SW 06:32:23 68° NW 06:37:08 10° NE
Cosmos 1408 Rocket 4.1 06:28:26 10° SW 06:32:23 35° WNW 06:36:24 10° N
Cosmos 1238 Rocket 4.0 06:26:38 10° S 06:33:15 84° W 06:39:14 10° N
STARLINK-68 3.7 06:29:17 10° WSW 06:33:26 82° SSE 06:37:35 10° ENE
Cosmos 1048 Rocket 4.2 06:28:10 10° NNW 06:33:26 55° WSW 06:38:37 10° S
STARLINK-67 3.2 06:32:38 14° W 06:34:37 38° SW 06:37:06 10° SE
STARLINK-58 3.7 06:30:42 10° WSW 06:34:50 82° SSE 06:39:00 10° ENE
Cosmos 1833 4.3 06:29:21 10° SSW 06:34:57 85° ESE 06:40:38 10° NNE
NOSS 3-4 (A) 4.2 06:28:57 10° NW 06:35:42 51° WSW 06:43:04 10° SSE
NOSS 3-4 (C) 4.2 06:29:02 10° NW 06:35:49 51° WSW 06:43:10 10° SSE
STARLINK-62 3.7 06:32:35 10° WSW 06:36:44 85° SSE 06:40:54 10° ENE
Cosmos 1933 3.8 06:33:02 10° NNW 06:36:49 40° W 06:40:34 10° SSW
STARLINK-63 3.7 06:34:10 10° WSW 06:38:19 85° SSE 06:42:28 10° ENE
Cosmos 2360 Rocket 2.4 06:32:58 10° NW 06:38:30 53° WSW 06:43:59 10° S
Cosmos 1500 Rocket 3.6 06:34:17 10° SSW 06:38:42 64° WNW 06:43:09 10° N
SL-16 R/B 3.3 06:34:55 10° NW 06:39:22 24° WSW 06:43:47 10° SSW
STARLINK 3.7 06:35:39 10° WSW 06:39:47 82° SSE 06:43:57 10° ENE
Cosmos 2237 Rocket 3.8 06:35:48 10° NNW 06:40:47 30° NE 06:45:43 10° ESE
STARLINK-72 3.7 06:37:25 10° WSW 06:41:34 86° SSE 06:45:44 10° ENE
STARLINK-46 2.8 06:39:12 11° WNW 06:42:02 71° NNE 06:45:01 10° ESE
ALOS 2.8 06:38:21 10° N 06:42:39 36° WNW 06:46:53 10° SW
STARLINK-59 3.6 06:40:49 10° WSW 06:44:58 89° NNW 06:49:09 10° ENE
Cosmos 2151 4.4 06:42:39 10° WSW 06:45:34 17° WNW 06:48:30 10° NNW
STARLINK-57 3.6 06:42:31 10° WSW 06:46:41 87° NNW 06:50:51 10° ENE
Cosmos 1408 3.9 06:45:08 10° WSW 06:47:54 20° WNW 06:50:40 10° NNW
Cosmos 2322 Rocket 3.3 06:43:57 10° NW 06:48:22 24° WSW 06:52:47 10° SSW
SMAP 3.2 06:44:33 10° NNE 06:49:15 83° ESE 06:53:55 10° SSW
STARLINK-28 3.6 06:45:49 10° WSW 06:49:58 84° NNW 06:54:08 10° ENE
Radarsat Rocket 3.9 06:44:27 10° NNE 06:50:18 75° WNW 06:56:11 10° SSW
Cosmos 1315 Rocket 3.2 06:46:21 10° N 06:50:22 71° ENE 06:54:24 10° SSE
Lacrosse 5 rocket 1.4 06:47:07 10° NW 06:50:40 56° NNE 06:54:12 10° ESE
STARLINK-53 3.6 06:46:32 10° WSW 06:50:42 83° NNW 06:54:52 10° ENE
STARLINK-75 3.6 06:47:22 10° WSW 06:51:31 77° NNW 06:55:41 10° ENE
Sich 1 3.7 06:48:42 10° S 06:52:53 59° E 06:57:06 10° NNE
Meteor 2-3 Rocket 3.8 06:47:12 10° SSW 06:52:55 66° WNW 06:58:43 10° N
STARLINK-54 3.6 06:49:09 10° WSW 06:53:18 81° NNW 06:57:27 10° ENE
COSMO-SKYMED 1 4.4 06:53:16 10° WSW 06:55:17 13° W 06:57:17 10° WNW
USA 267 4.4 06:49:25 10° ENE 06:55:43 48° SE 07:02:00 10° SSW
